Wind_Speed
10 9 8 7 6 5 4 3 3 3 3 3 3 2 2 1 1 2 3 4 4 5 6 7 7 8 9 10 10 11 12 13 14 15 16 17 17 18 19 19 19 20 20 20 20 21 21 21 22
9 8 7 6 5 5 4 3 3 2 2 2 1 0 1 2 3 4 5 6 7 8 8 9 9 10 11 12 13 13 14 15 15 16 17 18 18 19 20 20 21 21 21 22 22 23 23 24 24
8 7 6 5 4 3 2 2 1 1 1 1 2 3 4 5 6 7 8 9 9 10 10 11 11 12 13 14 14 15 15 16 16 17 18 19 19 20 20 21 22 22 23 24 24 25 25 26 26
6 5 4 3 2 2 2 2 2 3 3 4 5 7 7 8 9 10 10 11 11 12 12 12 13 13 14 15 15 16 16 16 17 18 18 19 19 20 21 22 22 23 24 24 25 26 27 27 28
5 4 4 4 4 4 4 5 6 6 7 7 8 10 10 11 11 12 12 12 13 13 13 13 14 14 15 15 15 15 16 17 17 18 19 19 20 20 21 22 22 23 24 24 25 26 27 28 29
6 6 6 6 7 7 7 8 9 9 9 10 10 11 12 12 12 13 13 13 13 13 13 14 14 14 14 14 15 15 16 17 17 18 18 19 19 20 21 21 22 22 23 24 25 26 27 28 29
7 8 9 9 9 10 10 10 10 11 11 12 12 12 13 12 12 12 13 13 13 13 13 13 13 13 13 14 15 15 16 17 17 18 18 19 19 20 20 21 22 23 24 25 26 27 27 28 29
9 10 11 11 11 11 12 11 11 12 12 12 12 12 12 12 12 12 12 12 12 12 12 12 12 13 13 14 15 15 16 16 17 18 18 19 20 21 22 23 24 25 26 27 27 28 29 29 30
11 11 12 12 11 12 13 12 12 12 12 12 12 12 12 12 12 11 11 12 12 12 12 12 12 12 13 13 14 15 16 17 18 19 20 21 22 23 24 25 26 27 28 29 30 30 31 32 33
12 13 13 13 12 12 13 12 12 12 12 12 12 12 11 11 11 11 11 11 11 11 11 12 12 12 13 13 14 15 17 18 19 21 22 23 24 25 27 28 29 30 31 32 33 34 35 35 36
13 14 14 14 13 13 13 12 12 12 12 11 11 11 11 11 11 11 11 11 11 11 11 12 12 12 13 14 15 17 18 19 20 21 23 24 25 26 28 29 31 32 33 34 35 36 37 38 39
14 15 15 15 15 14 13 13 12 13 12 10 11 11 11 10 10 10 10 10 11 11 12 12 13 14 14 15 17 17 18 19 20 22 23 25 26 28 29 31 32 34 35 36 37 38 39 40 41
16 16 16 16 16 15 14 14 13 15 12 11 12 11 12 12 11 11 11 11 12 12 13 13 14 15 16 17 18 19 20 21 22 24 25 27 28 29 31 33 34 36 37 38 39 40 41 42 44
17 17 18 18 18 16 15 15 16 16 13 13 13 13 13 13 12 12 12 13 13 13 14 14 15 17 18 19 20 21 22 24 25 26 28 29 31 32 34 35 37 38 40 41 42 42 43 44 45
19 19 19 20 19 18 16 15 19 16 16 16 15 15 15 15 15 15 15 15 15 15 15 16 17 19 20 21 23 24 25 26 28 29 30 32 33 35 36 38 39 41 42 44 45 45 46 47 48
20 20 20 21 21 20 18 14 22 19 17 17 18 17 17 17 17 18 18 17 18 18 18 19 20 21 22 24 25 27 28 30 31 32 33 35 36 38 39 41 43 44 45 47 48 49 49 49 50
21 21 21 23 23 21 20 15 21 23 20 19 19 19 19 19 19 20 20 20 20 21 22 22 23 24 25 27 28 30 31 33 34 36 37 38 39 41 42 44 46 47 48 50 51 52 52 52 52
22 22 22 24 24 23 21 18 20 26 23 21 21 21 21 21 22 23 22 23 23 24 25 26 26 28 29 30 31 33 34 36 37 39 40 41 42 44 45 47 49 50 51 52 54 54 54 54 55
23 23 23 24 25 24 22 20 22 25 26 24 23 23 23 24 25 25 24 25 26 27 28 29 30 31 32 33 34 35 37 39 41 42 43 45 46 47 49 50 52 53 53 55 56 56 56 57 57
24 25 25 25 26 26 23 21 24 25 26 25 24 25 25 25 27 27 27 28 29 30 31 32 32 34 35 36 38 38 40 42 44 46 47 48 49 51 52 53 54 55 56 57 58 58 59 60 59
25 26 26 26 26 26 24 18 22 24 25 25 25 26 26 27 28 29 29 30 31 32 34 34 35 37 38 40 41 42 44 45 47 49 50 52 53 54 54 55 56 57 58 60 60 60 60 61 60
25 27 27 27 27 25 25 21 20 22 25 25 26 27 28 29 30 31 32 33 34 35 36 37 38 40 41 43 44 46 47 48 50 52 53 55 56 57 57 57 58 59 61 62 62 62 62 62 61
26 27 27 27 26 25 25 24 21 22 24 26 27 28 30 31 32 33 34 35 36 37 38 40 41 43 44 46 47 49 50 52 54 55 56 57 58 58 59 59 60 62 62 63 63 63 63 62 62
27 28 28 28 27 25 25 24 23 23 24 25 27 29 30 32 34 36 37 38 39 40 41 42 44 45 47 48 50 51 53 54 56 56 57 58 59 59 60 61 63 63 63 64 64 64 63 63 62
28 29 31 30 28 27 25 25 24 26 26 27 29 30 32 33 35 37 38 40 41 43 44 45 46 47 49 50 52 53 55 56 57 58 59 60 60 60 62 64 64 64 64 64 65 65 64 63 63
28 29 31 33 32 30 27 25 25 28 28 30 31 32 34 34 36 37 39 41 43 44 45 47 48 49 50 52 53 54 56 57 58 59 60 60 61 62 63 64 65 65 65 65 66 65 65 64 64
29 30 32 34 36 35 32 28 25 28 30 32 35 36 36 36 37 39 40 42 43 45 46 47 49 50 51 52 53 55 56 57 58 59 60 60 61 62 64 64 65 65 65 66 66 65 64 64 64
30 32 34 35 38 40 38 33 30 31 32 34 37 39 39 39 40 41 42 43 45 46 47 49 50 51 52 53 54 55 56 57 58 59 60 61 62 63 64 65 66 66 66 67 67 65 65 64 64
32 33 35 37 39 41 44 40 34 35 36 39 41 42 42 42 42 42 43 44 46 47 48 49 50 51 52 53 54 55 56 57 58 59 61 62 62 63 65 66 66 66 66 67 66 65 65 63 63
34 35 36 38 40 42 46 45 36 38 43 46 47 46 45 45 45 45 45 46 47 48 48 49 50 50 51 52 53 54 55 57 58 59 60 61 62 63 64 64 65 64 64 64 64 63 62 62 62
Wind_Direction
78 80 81 79 80 76 78 76 83 88 97 100 107 112 116 138 246 270 276 273 276 279 280 282 285 287 289 291 293 295 296 295 296 296 295 295 294 293 293 292 291 290 288 286 284 282 280 279 277
74 75 76 75 76 77 75 70 76 75 82 85 98 139 247 266 276 280 280 280 281 283 283 285 287 290 292 294 295 296 296 296 296 296 295 295 294 293 293 292 291 290 289 288 286 284 283 281 279
67 65 68 67 64 63 59 49 46 27 346 311 294 288 282 280 282 282 283 283 283 284 285 287 290 293 295 296 296 297 297 297 297 296 295 295 294 294 293 293 292 290 289 288 287 286 284 283 281
52 47 43 37 19 355 328 316 304 290 286 286 285 285 284 284 284 284 285 285 285 285 287 289 291 293 295 295 296 297 298 298 297 296 296 296 295 294 293 292 291 290 289 288 287 286 285 284 283
26 13 360 345 329 314 304 296 292 286 283 281 280 281 281 282 282 282 283 284 284 286 288 290 292 294 295 296 297 298 299 299 299 298 297 296 295 294 293 292 292 291 290 289 288 287 286 285 284
356 342 330 320 312 304 300 296 292 288 285 283 280 280 280 280 280 281 282 283 284 287 289 291 293 295 297 299 300 301 301 301 301 300 299 299 298 297 295 294 294 293 292 291 289 288 287 286 285
335 327 317 311 306 301 298 295 293 290 288 285 282 280 280 280 279 280 281 283 285 288 290 292 295 297 299 301 302 303 303 303 303 303 303 302 301 300 299 298 297 295 294 293 292 291 290 288 287
327 320 314 312 306 301 297 294 291 288 287 285 283 281 280 281 280 280 281 284 286 288 291 294 296 299 301 303 304 305 305 306 306 306 306 306 305 304 303 302 300 299 297 296 295 294 293 291 290
322 317 312 310 305 299 297 293 290 287 286 284 283 280 280 281 282 283 283 286 288 291 293 296 299 301 303 304 305 306 307 308 308 308 307 307 306 305 304 303 302 300 299 297 296 295 294 293 292
318 314 311 308 304 299 297 294 290 287 286 282 279 278 279 280 281 282 283 285 287 290 294 297 300 303 304 306 308 309 309 309 309 308 308 308 307 306 305 304 302 301 299 298 297 296 295 294 293
315 312 310 307 305 301 298 295 292 288 284 281 278 277 277 277 278 280 282 284 286 288 292 296 300 303 305 308 309 310 310 310 310 310 310 310 309 308 307 306 304 303 301 299 297 296 295 293 292
310 309 308 306 305 302 300 297 294 288 283 280 277 274 272 273 273 275 278 281 284 286 290 295 299 302 305 306 307 308 309 310 311 311 312 312 312 312 311 310 308 306 303 301 299 297 295 294 293
307 307 307 305 304 302 299 296 289 284 284 279 276 273 271 272 272 273 276 278 280 284 288 293 297 299 302 304 305 307 307 308 309 310 311 311 312 312 312 311 310 308 306 304 301 299 297 296 294
303 305 305 303 303 300 298 294 286 283 283 277 275 273 272 272 273 274 274 276 279 282 286 290 294 297 299 301 302 303 304 305 306 307 308 309 309 310 310 310 309 309 308 306 304 302 299 297 296
299 302 302 301 300 299 297 294 286 284 280 276 274 272 271 272 273 273 275 276 277 279 283 286 290 293 295 297 299 299 300 301 302 304 305 306 307 308 308 309 308 308 308 307 305 303 301 299 297
295 298 299 298 297 298 297 294 286 286 280 276 273 272 272 273 274 274 275 275 277 279 281 283 286 288 291 293 295 296 298 299 300 301 302 303 304 305 306 307 308 308 308 308 306 304 302 300 298
292 295 298 297 296 297 296 292 284 285 282 278 275 272 272 274 274 275 276 277 278 279 280 281 283 286 288 291 292 294 296 297 298 299 300 301 302 303 304 305 306 306 307 307 307 305 303 301 299
291 294 296 296 297 298 297 293 283 281 282 280 276 273 271 271 271 273 276 276 277 279 280 281 282 283 286 289 290 292 294 295 297 298 299 300 301 302 303 304 304 305 305 305 306 305 304 302 300
292 294 296 296 297 298 299 297 285 281 282 279 276 273 271 270 271 274 274 275 276 278 279 280 281 283 285 287 289 291 293 294 296 297 298 299 300 301 302 303 303 304 304 304 304 304 304 302 301
294 295 297 298 299 300 300 301 291 284 282 280 276 274 271 270 271 272 273 274 275 277 278 280 281 283 285 287 289 291 292 294 295 296 297 298 299 300 301 302 303 303 303 303 304 303 303 302 301
297 298 300 301 302 303 302 301 293 287 284 281 278 275 273 272 272 272 273 274 275 276 277 279 281 283 286 287 289 291 292 294 295 295 297 298 298 299 300 300 301 301 302 303 303 303 303 302 301
299 299 302 304 305 307 305 306 297 291 287 283 279 277 275 274 273 273 274 274 275 277 279 280 282 284 286 288 290 291 293 294 294 295 296 297 297 298 298 299 299 300 301 302 302 302 302 302 301
300 301 303 304 306 308 307 306 302 294 289 285 282 279 277 275 275 274 275 276 277 279 280 282 284 286 287 289 291 292 293 293 293 295 295 296 296 297 298 298 298 299 300 300 301 302 302 302 302
302 302 303 304 306 307 308 308 306 299 293 289 285 282 280 278 278 278 279 280 280 282 283 285 286 287 288 290 291 292 292 292 293 294 294 295 295 296 296 296 297 298 299 299 300 301 302 302 302
303 305 305 306 307 309 311 312 312 306 300 294 290 286 284 282 282 283 284 285 285 286 287 288 289 290 290 291 292 292 292 293 294 294 294 294 294 295 295 295 296 297 298 298 299 301 302 303 303
303 305 306 307 308 309 311 312 314 307 302 297 293 290 288 288 288 289 289 289 290 290 291 291 291 292 292 292 292 292 292 293 294 294 294 294 294 294 294 295 296 297 298 299 300 302 303 303 304
303 304 305 305 305 306 306 309 312 308 303 299 296 294 294 294 293 292 291 292 292 292 291 292 292 292 291 291 291 292 292 293 293 293 294 294 293 293 294 295 296 297 299 300 301 302 303 303 303
302 304 305 306 307 307 306 309 317 308 303 298 296 296 297 296 295 294 294 294 293 293 292 292 292 292 292 292 292 292 293 293 293 293 293 293 294 294 295 296 297 298 299 300 301 302 302 303 303
301 302 303 304 304 305 306 308 317 309 304 298 297 298 298 297 296 295 294 294 294 294 294 294 293 293 292 292 293 293 293 292 292 293 293 294 294 294 295 296 297 298 299 299 300 301 301 302 302
299 301 303 303 304 304 303 306 313 307 301 299 300 302 301 301 300 298 298 297 297 296 296 295 294 294 293 293 293 293 293 293 293 293 294 295 296 296 297 297 298 298 299 300 300 300 300 300 301
Height
5885 5884 5885 5885 5885 5885 5884 5884 5883 5882 5882 5882 5882 5882 5882 5882 5883 5884 5882 5880 5880 5879 5879 5878 5878 5877 5876 5876 5875 5874 5873 5872 5871 5870 5868 5867 5866 5865 5864 5863 5862 5861 5860 5860 5859 5859 5858 5858 5857
5886 5886 5886 5886 5886 5885 5885 5884 5883 5883 5882 5882 5882 5881 5881 5881 5881 5880 5880 5879 5878 5878 5877 5876 5876 5875 5874 5873 5872 5871 5870 5869 5868 5867 5865 5864 5863 5862 5860 5859 5858 5857 5856 5855 5854 5854 5853 5853 5852
5887 5887 5887 5887 5886 5885 5885 5884 5883 5882 5882 5882 5881 5881 5880 5880 5879 5879 5878 5877 5877 5876 5875 5874 5873 5872 5871 5870 5869 5868 5867 5866 5864 5863 5862 5861 5859 5858 5856 5855 5854 5852 5851 5850 5849 5848 5848 5847 5846
5888 5888 5888 5887 5886 5885 5884 5883 5882 5881 5881 5881 5880 5880 5879 5879 5878 5877 5876 5875 5874 5873 5872 5871 5871 5870 5868 5867 5866 5865 5863 5862 5861 5859 5858 5857 5855 5854 5852 5851 5849 5848 5846 5845 5844 5843 5842 5841 5840
5888 5888 5888 5886 5885 5884 5883 5882 5881 5880 5880 5879 5879 5878 5877 5876 5875 5874 5873 5872 5872 5871 5870 5869 5868 5866 5865 5864 5863 5861 5860 5859 5857 5856 5854 5853 5851 5850 5848 5847 5845 5843 5842 5840 5839 5837 5836 5835 5834
5889 5888 5887 5886 5884 5883 5882 5880 5879 5879 5878 5877 5876 5875 5875 5874 5872 5872 5871 5870 5869 5868 5867 5865 5864 5863 5862 5860 5859 5858 5856 5855 5853 5852 5850 5849 5847 5845 5844 5842 5840 5839 5837 5835 5834 5832 5830 5829 5827
5889 5887 5886 5884 5883 5882 5880 5878 5877 5876 5875 5874 5873 5872 5872 5871 5870 5869 5868 5867 5866 5865 5863 5862 5861 5860 5858 5857 5856 5854 5853 5851 5849 5848 5846 5845 5843 5841 5839 5837 5836 5834 5832 5830 5828 5826 5825 5823 5821
5886 5886 5884 5882 5881 5880 5878 5876 5875 5874 5873 5871 5870 5870 5869 5868 5866 5866 5865 5864 5863 5862 5860 5859 5858 5856 5855 5853 5852 5851 5849 5847 5846 5844 5842 5840 5838 5836 5834 5832 5830 5828 5826 5824 5822 5820 5818 5816 5814
5885 5884 5882 5880 5879 5878 5876 5874 5873 5871 5870 5868 5867 5866 5866 5864 5863 5863 5862 5861 5860 5858 5857 5856 5854 5853 5852 5850 5849 5847 5845 5844 5842 5840 5838 5836 5834 5831 5829 5827 5825 5823 5820 5818 5815 5813 5811 5808 5806
5883 5882 5880 5878 5876 5875 5873 5871 5870 5868 5867 5865 5864 5863 5862 5861 5860 5859 5858 5857 5856 5855 5854 5852 5851 5850 5848 5847 5845 5843 5842 5840 5838 5835 5833 5831 5829 5826 5824 5821 5819 5816 5814 5811 5808 5806 5803 5800 5798
5880 5879 5877 5875 5873 5872 5870 5869 5867 5865 5864 5862 5861 5860 5859 5858 5857 5856 5855 5854 5853 5852 5851 5849 5848 5846 5845 5843 5841 5839 5838 5835 5833 5831 5828 5826 5823 5820 5818 5815 5812 5809 5806 5803 5800 5797 5794 5791 5788
5878 5876 5874 5873 5871 5869 5867 5866 5864 5862 5861 5859 5858 5857 5856 5855 5854 5853 5852 5851 5850 5848 5847 5846 5844 5843 5841 5839 5838 5836 5834 5831 5829 5826 5823 5820 5817 5814 5811 5808 5805 5802 5798 5795 5792 5789 5785 5782 5778
5875 5873 5871 5869 5867 5866 5864 5862 5860 5859 5858 5856 5855 5854 5853 5852 5851 5850 5849 5847 5846 5845 5843 5842 5840 5839 5837 5835 5833 5831 5829 5827 5824 5821 5818 5815 5812 5808 5805 5801 5798 5794 5790 5787 5783 5779 5775 5772 5768
5872 5870 5868 5866 5864 5863 5861 5859 5856 5855 5854 5853 5851 5850 5849 5848 5847 5846 5845 5843 5842 5841 5839 5838 5836 5835 5833 5831 5829 5826 5824 5821 5819 5816 5812 5809 5806 5802 5798 5794 5790 5786 5782 5778 5774 5770 5765 5761 5757
5869 5867 5865 5863 5860 5859 5859 5857 5852 5851 5850 5848 5847 5846 5845 5844 5843 5842 5841 5839 5838 5837 5835 5834 5832 5830 5828 5826 5823 5821 5818 5816 5813 5809 5806 5802 5799 5795 5791 5786 5782 5778 5773 5769 5764 5759 5755 5750 5745
5865 5864 5862 5859 5857 5855 5856 5855 5849 5847 5846 5844 5843 5842 5841 5840 5839 5837 5836 5835 5833 5832 5830 5829 5827 5825 5822 5820 5818 5815 5812 5809 5806 5802 5799 5795 5791 5787 5782 5778 5773 5768 5763 5758 5754 5748 5744 5739 5734
5861 5860 5858 5855 5853 5851 5851 5850 5846 5842 5841 5840 5839 5838 5836 5835 5834 5832 5831 5830 5828 5827 5825 5823 5821 5819 5817 5814 5811 5809 5805 5802 5799 5795 5791 5787 5782 5778 5773 5768 5764 5758 5753 5748 5742 5737 5731 5726 5721
5857 5855 5853 5850 5848 5847 5846 5845 5842 5837 5836 5835 5833 5832 5831 5830 5828 5826 5825 5824 5822 5821 5819 5817 5815 5813 5810 5807 5804 5801 5798 5794 5790 5786 5782 5778 5773 5769 5764 5759 5753 5748 5742 5737 5731 5725 5719 5713 5708
5851 5850 5849 5846 5844 5842 5841 5839 5836 5832 5830 5829 5828 5826 5825 5824 5822 5821 5819 5818 5816 5814 5812 5810 5808 5805 5802 5800 5796 5794 5790 5786 5782 5777 5773 5768 5764 5759 5753 5748 5742 5736 5731 5725 5719 5713 5706 5700 5694
5846 5845 5844 5842 5839 5837 5836 5835 5829 5826 5824 5823 5822 5820 5818 5817 5815 5814 5812 5811 5809 5807 5804 5802 5800 5797 5794 5791 5788 5785 5781 5777 5772 5767 5762 5758 5753 5748 5742 5736 5731 5724 5719 5712 5706 5700 5693 5686 5680
5842 5839 5838 5836 5834 5832 5831 5831 5825 5821 5818 5817 5815 5813 5812 5810 5808 5807 5805 5803 5801 5798 5796 5794 5791 5788 5785 5781 5778 5775 5771 5767 5762 5756 5752 5747 5741 5736 5730 5724 5718 5712 5706 5700 5693 5686 5679 5672 5666
5837 5834 5832 5830 5828 5826 5824 5823 5821 5816 5812 5810 5809 5807 5805 5803 5801 5799 5797 5795 5793 5790 5788 5785 5782 5779 5775 5771 5768 5764 5760 5756 5751 5745 5740 5735 5729 5723 5717 5711 5705 5699 5693 5686 5679 5673 5666 5658 5651
5831 5829 5827 5825 5823 5821 5818 5817 5815 5811 5807 5804 5802 5800 5798 5796 5794 5791 5789 5787 5784 5782 5779 5776 5773 5769 5765 5761 5757 5753 5749 5744 5738 5733 5728 5722 5716 5710 5704 5697 5691 5685 5679 5672 5665 5658 5651 5644 5636
5825 5823 5821 5819 5818 5817 5813 5811 5808 5805 5801 5798 5795 5793 5790 5788 5786 5783 5781 5778 5776 5773 5770 5766 5763 5759 5755 5750 5746 5741 5737 5731 5726 5720 5714 5708 5702 5697 5690 5683 5677 5671 5664 5657 5650 5643 5636 5629 5621
5820 5818 5815 5813 5811 5810 5807 5804 5802 5797 5794 5790 5788 5785 5782 5780 5778 5775 5773 5770 5767 5764 5760 5756 5753 5748 5744 5739 5734 5729 5723 5717 5712 5706 5700 5694 5688 5682 5675 5668 5662 5656 5649 5642 5634 5627 5620 5613 5605
5815 5812 5809 5806 5803 5802 5801 5799 5797 5791 5786 5782 5779 5777 5774 5773 5770 5767 5764 5761 5757 5754 5750 5746 5741 5737 5731 5726 5721 5716 5710 5704 5698 5692 5685 5679 5673 5667 5660 5653 5647 5640 5633 5626 5619 5612 5604 5597 5589
5809 5806 5803 5799 5795 5794 5793 5793 5792 5785 5780 5775 5771 5768 5766 5764 5761 5758 5754 5750 5746 5742 5738 5734 5729 5724 5718 5713 5707 5702 5696 5689 5683 5677 5670 5664 5658 5651 5644 5638 5631 5624 5617 5610 5603 5596 5589 5581 5573
5803 5799 5796 5792 5787 5783 5782 5783 5784 5777 5772 5767 5763 5759 5757 5755 5751 5748 5744 5739 5735 5730 5726 5721 5716 5710 5705 5699 5693 5687 5681 5674 5668 5661 5655 5648 5642 5635 5629 5622 5616 5609 5602 5595 5587 5580 5572 5565 5557
5797 5794 5789 5785 5781 5776 5771 5775 5775 5767 5761 5757 5753 5750 5747 5745 5741 5737 5733 5728 5723 5718 5713 5708 5702 5696 5690 5684 5678 5672 5666 5659 5652 5646 5639 5632 5626 5619 5613 5606 5600 5593 5586 5579 5571 5564 5557 5549 5541
5788 5786 5783 5779 5774 5768 5762 5765 5765 5758 5750 5745 5741 5739 5735 5731 5728 5723 5719 5715 5710 5704 5699 5693 5687 5681 5675 5669 5663 5657 5650 5643 5637 5631 5624 5617 5611 5604 5597 5591 5584 5577 5570 5562 5555 5548 5541 5533 5525